Lid_Strength_Index
1 0 0 0 0 0 0 0 -0 -0 -1 -1 -1 -0 -0 -0 -1 -0 -0 -0 0 0 0 0 0 -1 0 0 -0 0 1 1 3 2 1 -0 -1 -0 -1 -1 -1 -1 -1
0 0 0 0 0 0 0 -0 -0 -0 -1 -1 -1 -0 -0 -0 -1 -0 0 -0 0 1 0 0 0 -1 -0 -1 0 -0 0 1 2 3 2 1 0 -0 -0 -0 -0 -1 -1
1 1 1 0 1 0 0 0 -0 -0 -0 -0 -0 -0 -0 -0 -0 -0 -0 -0 0 0 0 0 0 -0 0 -1 -0 0 0 0 0 1 2 1 0 -0 0 -0 -0 -1 -1
1 1 1 1 1 0 0 0 0 -0 -0 -0 -0 -0 -0 -0 -0 -0 -0 -0 -0 -0 -0 -0 -0 -0 -0 -0 -1 -0 -0 1 -0 1 1 1 1 -0 0 2 2 0 0
1 1 1 1 0 0 0 0 -0 -0 -0 -0 -0 -0 -0 -0 0 -0 -0 0 -0 0 -0 -1 -1 -1 0 -1 -0 -1 -0 1 1 1 2 1 1 1 1 1 2 1 1
1 1 1 1 0 1 0 0 0 0 0 -0 0 0 0 0 2 2 1 0 -0 0 0 -0 -1 -0 -0 -0 0 -0 -0 0 1 1 2 2 1 1 1 1 1 2 3
1 1 1 1 1 1 1 1 1 1 0 0 0 0 0 -0 4 3 1 0 0 -0 -0 -0 0 -0 -1 -1 0 1 1 1 1 0 1 1 1 1 0 1 1 2 2
2 2 1 1 1 1 1 1 1 1 0 1 0 0 0 -0 3 3 2 -0 -0 -1 -0 -0 -0 -0 -0 -0 -0 -0 -0 -0 -0 -0 -0 -0 -0 -1 -1 -0 0 0 1
2 2 2 1 1 1 1 1 1 1 2 3 1 1 1 0 4 2 2 -1 -0 -0 -0 -0 -0 -0 4 2 0 1 0 0 -0 1 1 1 1 1 1 0 1 2 2
2 2 1 1 1 2 1 1 1 1 2 2 1 1 1 1 6 4 2 0 0 1 -0 -0 3 1 5 5 0 0 1 1 0 -0 -0 -0 -0 -0 1 -0 0 2 2
1 1 1 1 1 1 1 1 1 2 1 1 2 1 1 2 5 8 6 0 1 1 1 0 1 6 6 6 5 1 1 2 0 0 0 0 -0 -0 0 -0 -1 0 1
1 2 1 1 1 1 1 1 1 1 1 2 1 2 1 4 7 7 6 6 5 1 1 0 0 6 6 5 4 4 3 3 1 1 1 2 1 1 0 0 -0 -1 -1
1 2 2 1 1 1 1 2 2 1 2 2 2 2 1 3 4 6 6 5 5 1 1 4 4 4 4 2 2 3 3 0 1 1 1 1 1 1 -0 0 -0 -1 -1
2 2 2 2 2 1 1 1 1 2 2 2 2 2 2 2 1 1 1 2 4 2 1 0 1 3 3 2 1 1 1 1 2 2 2 2 1 1 1 1 2 2 1
2 3 2 2 2 6 8 4 3 7 3 2 1 1 2 2 5 8 7 2 2 3 4 -0 -0 0 1 1 2 2 2 2 3 3 3 3 3 2 2 2 2 2 3
3 2 3 4 5 6 6 8 12 12 13 12 12 6 7 9 10 10 9 8 8 7 2 1 2 2 3 3 3 3 3 4 4 4 4 4 5 4 4 4 3 3 4
3 3 5 5 5 5 5 6 8 10 12 13 13 12 11 11 10 9 9 8 7 6 2 2 2 3 3 3 4 4 4 3 3 4 4 5 5 5 6 6 5 6 6
4 7 3 3 3 3 4 5 4 4 5 7 11 9 12 11 9 9 9 7 3 3 2 2 3 3 3 4 4 4 3 3 4 4 4 5 5 6 7 7 6 7 7
4 3 4 2 3 3 3 3 3 4 5 6 6 8 9 9 9 8 7 1 2 2 3 3 3 3 4 4 3 2 2 3 3 3 4 4 5 7 8 8 7 8 8
4 5 3 3 3 4 4 4 5 5 5 4 4 3 3 5 3 2 2 2 2 3 3 3 3 3 3 3 2 2 2 2 2 2 3 3 4 6 8 8 8 8 8
4 5 4 4 4 5 5 5 5 5 5 3 2 4 10 2 3 3 3 3 2 3 3 3 3 3 3 2 2 2 3 3 2 2 2 2 2 2 5 7 8 8 8
4 5 5 5 5 5 5 4 4 3 2 3 4 6 8 3 3 4 3 3 3 3 2 2 3 3 2 2 2 3 3 3 3 3 3 2 1 2 1 3 5 6 7
6 5 5 5 5 6 4 3 2 2 3 4 4 4 3 3 3 3 3 3 3 3 3 2 2 2 2 2 2 2 3 3 3 3 3 2 1 2 2 2 3 5 6
5 5 5 4 3 3 3 3 4 5 4 4 3 3 2 2 3 3 3 3 2 2 2 2 2 3 2 2 2 2 3 6 6 4 3 1 2 3 2 2 2 1 3
5 4 3 3 3 3 3 4 3 3 3 3 3 3 3 2 3 2 3 3 3 4 4 4 3 3 2 2 3 4 9 14 10 11 3 1 2 2 2 2 2 2 2
2 2 2 2 3 3 3 3 2 2 3 3 3 2 2 2 2 3 3 3 4 4 4 3 3 3 2 3 4 10 14 14 11 14 7 2 2 2 3 2 2 2 2